Tracking 28799 objects as of 18-Apr-2024
HD Live streaming from Space Station
objects crossing your sky now

COSMOS 2354

Track COSMOS 2354 now!
10-day predictions
COSMOS 2354 is classified as:


NORAD ID: 25365
Int'l Code: 1998-036C
Perigee: 1,313.5 km
Apogee: 1,878.3 km
Inclination: 82.6 °
Period: 117.9 minutes
Semi major axis: 7966 km
RCS: 0.9905 m2 (medium)
Launch date: June 15, 1998
Source: Commonwealth of Independent States (former USSR) (CIS)
Launch site: PLESETSK MISSILE AND SPACE COMPLEX (PKMTR)

Satellites have a single simultaneous earth-space and space-earth channel.
Your satellite tracking list
Your tracking list is empty




NASA's NSSDC Master Catalog

Two Line Element Set (TLE):
1 25365U 98036C   24108.50203598  .00000054  00000-0  32736-3 0  9997
2 25365  82.5778  94.9475 0354446  98.5074  20.3738 12.20860979151584
Source of the keplerian elements: AFSPC